Find OneWeb SL0548

NORAD ID: 56050 Int'l Des: 2023-043 Owner: ONEWEBN Country: UK Constellation: oneweb operational
LEOCIRCULARPOLARONEWEB_TYPE

リアルタイム位置

3D地球を読み込み中...

OneWeb SL0548について

説明を読み込み中...

次回通過

Passes for default location (London). Set your location on the main map for personalized predictions.

高度履歴

Loading altitude history...

軌道要素

1 56050U 23043E 26124.57787787 .00000018 00000-0 13536-4 0 9990
2 56050 87.9089 237.4301 0002396 103.4082 256.7317 13.16593187153225
Epoch: May 4, 2026 • Age: 5 hours

現在のステータス

高度 1200.4 km
速度 7.25 km/s
衛星直下点 5.03°N, 84.38°E
打ち上げ日 Mar 26, 2023
運用期間 3.1 years
タイプ internet

技術仕様

分類 Payload
質量 148.00 kg
乾燥質量 140.00 kg
総質量 148.00 kg
長さ 1.30 m
直径 1.00 m
スパン 5.00 m
形状 Trapezoid+2 pan
製造者 ONEWUS
バスタイプ ARROW
フェーズステータス In Orbit
所有者/国 ONEWEBN/UK

Most Searched